sat.trackr.live / text

‹ back to catalog

ONEWEB-0302

NORAD 49091 · 2021-075S

PAYLOAD ACTIVE UNKNOWN

§ Identity

Operator
Country
UK
Launch date
2021-08-21
Launch site
TYMSC
Launch vehicle
Mass (kg)
RCS (m²)

Purposes: comms

External: N2YO · Heavens-Above · Gunter

§ Orbital elements

Epoch: 2026-09-04T05:00:44.137152Z

Period
109.72 min
Inclination
87.8994°
Eccentricity
0.0001582
Mean motion
13.12442853 rev/d
Perigee alt
1,212.5 km
Apogee alt
1,214.9 km
Semi-major
7,591.9 km
B*
-6.3723e-4
RAAN
334.9760°
Arg perigee
94.9037°
Mean anomaly
265.2272°
Rev number
24,491

§ Raw data

ONEWEB-03021 49091U 21075S   26247.20884418 -.00000217  00000+0 -63723-3 0  99992 49091  87.8994 334.9760 0001582  94.9037 265.2272 13.12442853244919

JSON: /api/v1/satellites/49091 · /tle

For live sub-satellite position, see the globe view (requires WebGL).

§ Visibility from observer

Set your observer location to see the next 7 days of passes ≥ 10°. The values pass through the URL so the page stays shareable.

No JS? Fill the form by hand. The geolocation button needs JavaScript.